Back to catalog

STARLINK-35277

AliveCommunicationsVLEO
NORAD 65832·PAYLOAD·🇺🇸 United States

Launched Sep 29, 2025 from Vandenberg Space Force Base

Loading…

Next Passes (next 24 hours)

TLE

FreshSource: CelesTrak SupGP

Epoch: Sep 14, 2026, 15:19 UTC

1 65832C 25221K   26257.63868056 -.00003219  00000+0 -95138-4 0  2573
2 65832  53.1574 287.2819 0001253  78.6831 169.3547 15.34383410    10

Track STARLINK-35277 in real time with AllMySat

Download on the App Store